This demonstration page uses our WeatherBlox Daily Observations layout. Learn more.

39.92423, -83.80882

Hourly Observations for September 19, 2018

Temp ( °F °C ) Dew Point ( °F °C ) Humidity (%) Winds ( mph kmh ) Pressure ( in mb ) Visibility ( mi km ) Precip ( " mm )
12:56 am 00:56 Partly Cloudy 69 20.6 66 18.9 90 90 Calm 29.92 1013 10 16.0934 0 0
1:56 am 01:56 Clear 67 19.4 65 18.3 93 93 Calm 29.92 1013 10 16.0934 0 0
2:56 am 02:56 Mostly Clear 67 19.4 65 18.3 93 93 N 3 6 29.92 1013 10 16.0934 0 0
3:56 am 03:56 Clear 66 18.9 64 17.8 93 93 Calm 29.92 1013 10 16.0934 0 0
4:56 am 04:56 Cloudy 67 19.4 66 18.9 97 97 NNW 7 11 29.94 1014 10 16.0934 0 0
5:56 am 05:56 Partly Cloudy 70 21.1 68 20 93 93 NNE 9 15 29.96 1015 10 16.0934 0 0
6:56 am 06:56 Mostly Cloudy 69 20.6 68 20 96 96 ENE 3 6 29.97 1015 10 16.0934 0 0.0254
7:56 am 07:56 Mostly Cloudy 69 20.6 68 20 96 96 SW 3 6 29.99 1016 10 16.0934 0 0
8:56 am 08:56 Mostly Sunny 71 21.7 69 20.6 94 94 NNE 9 15 30.02 1017 10 16.0934 0 0
9:56 am 09:56 Sunny 75 23.9 70 21.1 84 84 ENE 8 13 30.01 1016 10 16.0934 0 0
10:56 am 10:56 Sunny 78 25.6 69 20.6 74 74 NE 7 11 30.02 1017 10 16.0934 0 0
11:56 am 11:56 Sunny 81 27.2 69 20.6 67 67 N 3 6 30.03 1017 10 16.0934 0 0
12:56 pm 12:56 Sunny 84 28.9 70 21.1 63 63 VRB 3 6 30.02 1017 10 16.0934 0 0
1:56 pm 13:56 Sunny 85 29.4 67 19.4 55 55 N 6 9 30.01 1016 9 14.48406 0 0
2:56 pm 14:56 Sunny 86 30 68 20 55 55 N 5 7 29.99 1016 10 16.0934 0 0
3:56 pm 15:56 Partly Cloudy 87 30.6 68 20 53 53 NNE 5 7 29.98 1015 10 16.0934 0 0
4:56 pm 16:56 Sunny 86 30 67 19.4 53 53 VRB 3 6 29.98 1015 10 16.0934 0 0
6:56 pm 18:56 Sunny 84 28.9 67 19.4 57 57 Calm 29.98 1015 10 16.0934 0 0
7:56 pm 19:56 Clear 78 25.6 69 20.6 74 74 N 7 11 30.01 1016 9 14.48406 0 0
8:56 pm 20:56 Clear 74 23.3 67 19.4 79 79 NE 7 11 30.02 1017 10 16.0934 0 0
9:56 pm 21:56 Clear 72 22.2 67 19.4 84 84 ENE 5 7 30.04 1017 10 16.0934 0 0
10:56 pm 22:56 Clear 69 20.6 66 18.9 90 90 ENE 7 11 30.04 1017 10 16.0934 0 0
11:56 pm 23:56 Clear 68 20 67 19.4 96 96 E 6 9 30.04 1017 10 16.0934 0 0

Powered by AerisWeather